Salinas, CA

7:22 PM PDT on May 27, 2017 (GMT -0700)
Salinas Municipal

Weather History for KSNS - December, 2012

Change the Weather History Date:

Friday, December 21, 2012

  Actual Average Record
Temperature  
Mean Temperature 48 °F 50 °F  
Max Temperature 58 °F 61 °F 74 °F (1985)
Min Temperature 37 °F 40 °F 24 °F (1998)
Degree Days  
Heating Degree Days 17 15  
Month to date heating degree days 280 290  
Since 1 July heating degree days 712 908  
Cooling Degree Days 0 0  
Month to date cooling degree days 0 0  
Year to date cooling degree days 110 130  
Moisture  
Dew Point 38 °F    
Average Humidity 70    
Maximum Humidity 83    
Minimum Humidity 57    
Precipitation  
Precipitation 0.01 in 0.07 in 1.66 in (1996)
Month to date precipitation 1.28 1.23  
Year to date precipitation 11.72 12.13  
Since 1 July precipitation 4.60  
Sea Level Pressure  
Sea Level Pressure 30.01 in    
Wind  
Wind Speed 19 mph (ESE)    
Max Wind Speed 28 mph    
Max Gust Speed 33 mph    
Visibility 10 miles    
Events Rain    
T = Trace of Precipitation, MM = Missing Value Source: NWS Daily Summary

Daily Weather History Graph

Daily Weather History Graph

Search for Another Location

Airport or City:

Trip Planner

Search our weather history database for the weather conditions in past years. The results will help you decide how hot, cold, wet, or windy it might be!

Date:

Astronomy

Dec. 21, 2012 Rise Set
Actual Time 7:15 AM PST 4:54 PM PST
Civil Twilight 6:46 AM PST 5:23 PM PST
Nautical Twilight 6:13 AM PST 5:55 PM PST
Astronomical Twilight 5:42 AM PST 6:27 PM PST
Moon 12:38 PM PST (12/21) 1:13 AM PST (12/21)
Length of Visible Light 10h 36m
Length of Day
9h 39m
Waxing Gibbous, 66% of the Moon is Illuminated
Dec 21
Waxing Gibbous
Dec 28
Full
Jan 4
Last Quarter
Jan 11
New
Jan 18
First Quarter

Hourly Weather History & Observations

Time (PST) Temp. Windchill Dew Point Humidity Pressure Visibility Wind Dir Wind Speed Gust Speed Precip Events Conditions
12:53 AM 41.0 °F 33.9 °F 28.9 °F 62% 30.08 in 10.0 mi ESE 12.7 mph - N/A   Clear
1:53 AM 39.9 °F 32.9 °F 28.9 °F 65% 30.06 in 10.0 mi ESE 11.5 mph - N/A   Clear
2:53 AM 41.0 °F 33.9 °F 28.9 °F 62% 30.05 in 10.0 mi ESE 12.7 mph - N/A   Clear
3:53 AM 37.0 °F 33.3 °F 28.9 °F 73% 30.05 in 10.0 mi SE 4.6 mph - N/A   Clear
4:53 AM 37.9 °F 30.0 °F 28.9 °F 70% 30.04 in 10.0 mi ESE 12.7 mph - N/A   Clear
5:53 AM 39.0 °F 29.9 °F 28.9 °F 67% 30.04 in 10.0 mi ESE 17.3 mph - N/A   Clear
6:53 AM 39.0 °F 29.0 °F 28.0 °F 65% 30.04 in 10.0 mi ESE 20.7 mph - N/A   Clear
7:53 AM 39.9 °F 30.0 °F 28.0 °F 63% 30.04 in 10.0 mi ESE 21.9 mph - N/A   Clear
8:53 AM 41.0 °F 32.8 °F 30.0 °F 65% 30.05 in 10.0 mi East 16.1 mph - N/A   Clear
9:53 AM 46.0 °F 39.9 °F 33.1 °F 61% 30.06 in 10.0 mi East 13.8 mph - N/A   Clear
10:53 AM 51.1 °F - 39.0 °F 63% 30.03 in 10.0 mi ESE 24.2 mph 32.2 mph N/A   Mostly Cloudy
11:53 AM 54.0 °F - 42.1 °F 64% 30.00 in 10.0 mi ESE 26.5 mph 33.4 mph 0.00 in   Mostly Cloudy
12:53 PM 57.0 °F - 44.1 °F 62% 29.98 in 10.0 mi ESE 25.3 mph 31.1 mph 0.00 in   Overcast
1:53 PM 57.0 °F - 43.0 °F 59% 29.96 in 10.0 mi ESE 25.3 mph 33.4 mph N/A   Scattered Clouds
2:53 PM 57.0 °F - 43.0 °F 59% 29.97 in 10.0 mi ESE 23.0 mph 29.9 mph 0.00 in   Overcast
3:53 PM 55.9 °F - 45.0 °F 67% 29.97 in 6.0 mi ESE 17.3 mph - 0.00 in Rain Light Rain
4:53 PM 55.9 °F - 45.0 °F 67% 29.98 in 10.0 mi ESE 18.4 mph - 0.00 in   Overcast
5:53 PM 54.0 °F - 45.0 °F 72% 29.99 in 10.0 mi ESE 19.6 mph 27.6 mph N/A   Partly Cloudy
6:53 PM 52.0 °F - 45.0 °F 77% 29.99 in 10.0 mi ESE 20.7 mph - N/A   Mostly Cloudy
7:53 PM 51.1 °F - 45.0 °F 80% 29.97 in 10.0 mi ESE 24.2 mph 28.8 mph N/A   Scattered Clouds
8:53 PM 51.1 °F - 45.0 °F 80% 29.99 in 10.0 mi ESE 21.9 mph - N/A   Clear
9:53 PM 52.0 °F - 45.0 °F 77% 29.98 in 10.0 mi ESE 21.9 mph 31.1 mph N/A   Overcast
10:53 PM 52.0 °F - 46.0 °F 80% 29.96 in 10.0 mi ESE 21.9 mph - N/A   Overcast
11:53 PM 51.1 °F - 48.0 °F 89% 29.97 in 10.0 mi ESE 17.3 mph - 0.01 in   Overcast